Regional Weather Roundup
Issued by NWS

Home | Current Version | Previous Version | Text Only | Print | Product List | Glossary Off
Versions: 1 2 3 4 5 6 7 8 9 10 11 12 13 14 15 16 17 18 19 20 21 22 23 24 25 26 27 28 29 30 31 32 33 34 35 36 37 38 39 40 41 42 43 44 45 46 47 48 49 50

028
ASUS43 KMPX 191810
RWRMN
WEATHER ROUNDUP FOR MINNESOTA
NATIONAL WEATHER SERVICE TWIN CITIES/CHANHASSEN MN
1200 PM CST THU JAN 19 2017


NOTE: "FAIR" INDICATES FEW OR NO CLOUDS BELOW 12,000 FEET WITH NO
SIGNIFICANT WEATHER AND/OR OBSTRUCTIONS TO VISIBILITY. N/A MEANS
CURRENT SKY AND/OR WEATHER CONDITIONS ARE NOT AVAILABLE.

MNZ060>063-068>070-191900-
   Twin Cities Metro

CITY           SKY/WX    TMP DP  RH WIND       PRES   REMARKS
TWIN CITIES    MOSUNNY   35  31  85 SE10      29.78F WCI  27
6HR MIN TEMP:  30; 6HR MAX TEMP:  36;

ST PAUL        PTSUNNY   33  32  96 SE15      29.80F FOG     WCI  23
CRYSTAL        SUNNY     40  31  70 SE9       29.75F
BLAINE         SUNNY     43  36  75 S7        29.76F
LAKEVILLE      CLOUDY    34  34 100 SE7       29.79F FOG     WCI  28
EDEN PRAIRIE   SUNNY     38  32  79 S12       29.76F
6HR MIN TEMP:  34; 6HR MAX TEMP:  39;

SOUTH ST PAUL  CLOUDY    34  32  94 S8        29.80F FOG     WCI  27
LAKE ELMO      PTSUNNY   34  32  93 S8        29.79F FOG     WCI  27
$$
MNZ001>005-007-008-013>017-022>024-027-028-191900-
   Northwest Minnesota

CITY           SKY/WX    TMP DP  RH WIND       PRES   REMARKS
BEMIDJI        CLOUDY    34  33  95 S10       29.63F WCI  26
HALLOCK        CLOUDY    28  27  93 S21       29.55F FOG     WCI  15
ROSEAU         CLOUDY    30  27  86 S17       29.58F FOG     WCI  18
WARROAD        SUNNY     36  30  80 S9        29.59F
THIEF RVR FALL CLOUDY    35  33  92 S15       29.60F FOG     WCI  25
CROOKSTON      CLOUDY    32  32 100 S16       29.60F FOG     WCI  21
FOSSTON        SUNNY     37  30  75 S12       29.60F
DETROIT LAKES  SUNNY     37  34  87 SE9       29.63F
MOORHEAD       SUNNY     34  30  86 S10       29.62F WCI  26
PARK RAPIDS    CLOUDY    35  33  92 S8        29.64F FOG     WCI  29
MAHNOMEN       FAIR      37  33  86 S8        29.60F
$$
MNZ006-009>011-018-025>026-191900-
   North Central Minnesota

CITY           SKY/WX    TMP DP  RH WIND       PRES   REMARKS
BAUDETTE       CLOUDY    31  29  92 S10       29.61F FOG     WCI  22
FLAG ISLAND    CLOUDY    28  25  86 S18       29.58F WCI  16
INTL FALLS     CLOUDY    34  31  88 VRB5      29.63F FOG     WCI  30
6HR MIN TEMP:  22; 6HR MAX TEMP:  34;

WASKISH        CLOUDY    36  32  87 S3        29.63F
BIG FORK       CLOUDY    36  34  93 S7        29.66F FOG
LONGVILLE      FOG       36  34  93 SE7       29.66F VSB 1
GRAND RAPIDS   FOG       35  34  96 S10       29.69F VSB 1/2 WCI  27
CRANE LAKE     CLOUDY    34  32  93 S6        29.68F WCI  29
ORR            CLOUDY    34  30  86 S7        29.64F WCI  28
COOK           CLOUDY    36  32  87 S10       29.68F
WALKER         CLOUDY    36  34  94 SW8       29.65F
$$
MNZ012-019>021-037-191900-
   Northeast Minnesota

CITY           SKY/WX    TMP DP  RH WIND       PRES   REMARKS
DULUTH         MOSUNNY   39  35  86 S9        29.71F
6HR MIN TEMP:  33; 6HR MAX TEMP:  39;

ELY            CLOUDY    36  34  93 SW7       29.68F
HIBBING        FOG       33  33 100 S9        29.68F VSB 1/4 WCI  25
EVELETH        FOG       35  35  99 S9        29.70F VSB 3/4 WCI  28
DULUTH HARBOR  SUNNY     41  36  81 CALM      29.75F
TWO HARBORS    CLOUDY    37  34  87 SW7       29.72F FOG
SILVER BAY     CLOUDY    36  36 100 S3        29.73F FOG
G MARAIS ARPRT SNOW      30  28  93 S7        29.72F VSB<1/4 WCI  23
$$
MNZ029>031-032-039>041-046>048-054>057-064-191900-
   West Central Minnesota

CITY           SKY/WX    TMP DP  RH WIND       PRES   REMARKS
FERGUS FALLS   SUNNY     37  36  93 S14       29.67F
WHEATON        SUNNY     43  39  87 SE15      29.64F
MORRIS         SUNNY     37  34  87 SE14      29.64F
ALEXANDRIA     SUNNY     38  34  85 S12       29.66F
ELBOW LAKE     FAIR      35  33  92 E12       29.63F FOG     WCI  27
WADENA         SUNNY     39  36  87 S8        29.65F
GLENWOOD       SUNNY     37  34  87 S14       29.68F
APPLETON       SUNNY     39  34  81 SE14      29.66F
BENSON         SUNNY     39  30  70 S13         N/A
ORTONVILLE     SUNNY     36  34  93 SE3       29.63F
MADISON        SUNNY     39  37  93 SE14      29.65F
WILLMAR        FAIR      37  34  87 SE10      29.71F FOG
$$
MNZ033>034-036-042>043-049>051-058-059-191900-
   Central Minnesota

CITY           SKY/WX    TMP DP  RH WIND       PRES   REMARKS
ST CLOUD       SUNNY     38  34  85 SE13      29.72F
6HR MIN TEMP:  23; 6HR MAX TEMP:  38;

SAUK CENTRE    FAIR      35  32  89 SE13      29.69F WCI  26
PAYNESVILLE    SUNNY     37  36  95 SE8G18    29.72S
AITKIN         SUNNY     39  32  75 SE6       29.68F
PINE RIVER     CLOUDY    34  34 100 S5        29.71F FOG     WCI  30
BRAINERD       SUNNY     38  34  85 S9        29.69F
STAPLES        SUNNY     37  34  87 S9        29.67F
LONG PRAIRIE   FAIR      36  32  87 SE13      29.68F
LITTLE FALLS   SUNNY     37  32  81 SE10      29.71F
LITCHFIELD     CLOUDY    36  34  93 SE5       29.73F FOG
BUFFALO        SUNNY     40  33  75 SE3       29.76F
MAPLE LAKE     SUNNY     40  35  81 S6        29.75F
HUTCHINSON     FOG       34  34 100 SE6       29.75F VSB 1/2 WCI  29
$$
MNZ037-044-045-052-053-191900-
   East Central Minnesota

CITY           SKY/WX    TMP DP  RH WIND       PRES   REMARKS
PRINCETON      SUNNY     43  36  75 SE7       29.74F
MORA           SUNNY     36  36 100 S7        29.76F
CAMBRIDGE      SUNNY     43  32  65 S7        29.74F
RUSH CITY      SUNNY     39  32  75 S10       29.76F
MOOSE LAKE     SUNNY     39  32  75 S8        29.71F
HINCKLEY       FAIR      37  34  87 S8        29.76F
CLOQUET        SUNNY     39  32  75 S7        29.71F
MCGREGOR       CLOUDY    36  34  93 SE7       29.71F
$$
MNZ071>073-080-081-089-090-097-098-191900-
   Southwest Minnesota

CITY           SKY/WX    TMP DP  RH WIND       PRES   REMARKS
MONTEVIDEO     SUNNY     43  36  75 S10G16    29.69F
GRANITE FALLS  SUNNY     40  36  84 SE15      29.70F
CANBY          SUNNY     43  37  79 CALM      29.66F
MARSHALL       SUNNY     41  36  82 S16       29.68F
REDWOOD FALLS  PTSUNNY   36  32  85 SE14      29.71F FOG
OLIVIA         SUNNY     36  34  93 SE10      29.72F FOG
PIPESTONE      SNOW      36  36 100 S12       29.67F VSB<1/4
WINDOM         PTSUNNY   37  36  93 S10       29.73F
WORTHINGTON    FOG       36  36 100 S15       29.71F VSB 1/4
JACKSON        SUNNY     36  32  87 S14       29.73F FOG
TRACY          MOSUNNY   41  37  86 S15G21    29.69F
SLAYTON        CLOUDY    38  36  91 S16       29.71F
$$
MNZ065>067-074>077-082>085-091>093-191900-
   South Central Minnesota

CITY           SKY/WX    TMP DP  RH WIND       PRES   REMARKS
NEW ULM        MOSUNNY   36  34  93 S13       29.74F FOG
ST JAMES       MOSUNNY   36  36 100 S12       29.75F
FAIRMONT       CLOUDY    35  34  96 S12       29.77F FOG     WCI  27
GLENCOE        CLOUDY    35  35 100 S5        29.76S FOG     WCI  31
FARIBAULT        N/A     36  32  87 SE6       29.79F
OWATONNA       PTSUNNY   34  32  93 SE10      29.78F WCI  26
WASECA         CLOUDY    34  32  93 SE7       29.79F WCI  28
ALBERT LEA     CLOUDY    34  34 100 SE15      29.80S FOG     WCI  24
$$
MNZ078>079-086>088-094>096-191900-
   Southeast Minnesota

CITY           SKY/WX    TMP DP  RH WIND       PRES   REMARKS
ROCHESTER      FOG       31  31 100 S14       29.81F VSB 1   WCI  21
6HR MIN TEMP:  29; 6HR MAX TEMP:  31;

RED WING       CLOUDY    34  30  86 SE6       29.82F FOG     WCI  29
STANTON        CLOUDY    35  32  87 S6        29.79F WCI  30
DODGE CENTER   CLOUDY    30  30 100 CALM      29.79F FOG
WINONA         PTSUNNY   36  34  93 E6        29.85F
AUSTIN         FOG       30  30 100 S7        29.81F VSB 1/2 WCI  23
PRESTON        FOG       31  31  97 S9        29.83F VSB 1/2 WCI  23
$$
ABBREVIATIONS USED IN REMARKS
   TC - TEMPERATURES IN CELSIUS
  WCI - WIND CHILL INDEX
   HX - HEAT INDEX
  VSB - VISIBILITY
$$




USA.gov is the U.S. government's official web portal to all federal, state and local government web resources and services.